Time,TemperatureF,DewpointF,PressureIn,WindDirection,WindDirectionDegrees,WindSpeedMPH,WindSpeedGustMPH,Humidity,HourlyPrecipIn,Conditions,Clouds,dailyrainin,SoftwareType,DateUTC
2013-01-08 00:10:00,26.3,24.0,30.44,SE,133,0.0,0.0,92,0.00,,,0.00,weatherlink.com 1.10,2013-01-08 05:10:00,
2013-01-08 00:25:00,26.2,24.0,30.44,SE,132,0.0,0.0,92,0.00,,,0.00,weatherlink.com 1.10,2013-01-08 05:25:00,
2013-01-08 00:40:00,26.1,24.0,30.45,SE,132,0.0,0.0,92,0.00,,,0.00,weatherlink.com 1.10,2013-01-08 05:40:00,
2013-01-08 00:55:00,25.7,24.0,30.45,SE,133,0.0,0.0,92,0.00,,,0.00,weatherlink.com 1.10,2013-01-08 05:55:00,
2013-01-08 01:10:00,25.6,24.0,30.45,SE,133,0.0,0.0,92,0.00,,,0.00,weatherlink.com 1.10,2013-01-08 06:10:00,
2013-01-08 01:25:00,25.6,24.0,30.45,SE,133,0.0,0.0,93,0.00,,,0.00,weatherlink.com 1.10,2013-01-08 06:25:00,
2013-01-08 01:40:00,25.3,23.0,30.45,SE,133,0.0,0.0,92,0.00,,,0.00,weatherlink.com 1.10,2013-01-08 06:40:00,
2013-01-08 01:55:00,25.2,23.0,30.46,SE,133,0.0,0.0,92,0.00,,,0.00,weatherlink.com 1.10,2013-01-08 06:55:00,
2013-01-08 02:10:00,25.0,23.0,30.46,SE,133,0.0,0.0,92,0.00,,,0.00,weatherlink.com 1.10,2013-01-08 07:10:00,
2013-01-08 02:25:00,24.5,23.0,30.46,East,80,0.0,6.0,92,0.00,,,0.00,weatherlink.com 1.10,2013-01-08 07:25:00,
2013-01-08 02:40:00,24.5,23.0,30.45,ENE,74,0.0,2.0,92,0.00,,,0.00,weatherlink.com 1.10,2013-01-08 07:40:00,
2013-01-08 02:55:00,24.2,22.0,30.45,ENE,74,0.0,0.0,92,0.00,,,0.00,weatherlink.com 1.10,2013-01-08 07:55:00,
2013-01-08 03:10:00,24.0,22.0,30.45,ENE,74,0.0,0.0,92,0.00,,,0.00,weatherlink.com 1.10,2013-01-08 08:10:00,
2013-01-08 03:25:00,23.6,22.0,30.45,ENE,74,0.0,0.0,92,0.00,,,0.00,weatherlink.com 1.10,2013-01-08 08:25:00,
2013-01-08 03:40:00,23.5,22.0,30.45,ENE,74,0.0,0.0,92,0.00,,,0.00,weatherlink.com 1.10,2013-01-08 08:40:00,
2013-01-08 03:56:00,23.2,21.0,30.45,ENE,74,0.0,0.0,92,0.00,,,0.00,weatherlink.com 1.10,2013-01-08 08:56:00,
2013-01-08 04:11:00,23.1,21.0,30.45,ENE,74,0.0,0.0,93,0.00,,,0.00,weatherlink.com 1.10,2013-01-08 09:11:00,
2013-01-08 04:26:00,22.6,21.0,30.45,ENE,74,0.0,0.0,92,0.00,,,0.00,weatherlink.com 1.10,2013-01-08 09:26:00,
2013-01-08 04:41:00,22.7,21.0,30.45,ENE,74,0.0,0.0,93,0.00,,,0.00,weatherlink.com 1.10,2013-01-08 09:41:00,
2013-01-08 04:56:00,22.7,21.0,30.45,ENE,74,0.0,1.0,93,0.00,,,0.00,weatherlink.com 1.10,2013-01-08 09:56:00,
2013-01-08 05:11:00,22.1,20.0,30.45,ENE,74,0.0,0.0,92,0.00,,,0.00,weatherlink.com 1.10,2013-01-08 10:11:00,
2013-01-08 05:26:00,21.9,20.0,30.44,ENE,74,0.0,1.0,92,0.00,,,0.00,weatherlink.com 1.10,2013-01-08 10:26:00,
2013-01-08 05:41:00,21.9,20.0,30.45,ENE,74,0.0,0.0,92,0.00,,,0.00,weatherlink.com 1.10,2013-01-08 10:41:00,
2013-01-08 05:56:00,22.2,21.0,30.46,ENE,74,0.0,0.0,93,0.00,,,0.00,weatherlink.com 1.10,2013-01-08 10:56:00,
2013-01-08 06:11:00,22.0,20.0,30.46,North,1,3.0,3.0,92,0.00,,,0.00,weatherlink.com 1.10,2013-01-08 11:11:00,
2013-01-08 06:26:00,22.4,21.0,30.46,North,1,0.0,0.0,92,0.00,,,0.00,weatherlink.com 1.10,2013-01-08 11:26:00,
2013-01-08 06:41:00,22.1,20.0,30.46,North,1,0.0,0.0,92,0.00,,,0.00,weatherlink.com 1.10,2013-01-08 11:41:00,
2013-01-08 06:56:00,22.4,21.0,30.45,East,97,0.0,2.0,93,0.00,,,0.00,weatherlink.com 1.10,2013-01-08 11:56:00,
2013-01-08 07:11:00,22.9,21.0,30.45,East,97,0.0,2.0,93,0.00,,,0.00,weatherlink.com 1.10,2013-01-08 12:11:00,
2013-01-08 07:26:00,22.8,21.0,30.46,East,97,0.0,0.0,92,0.00,,,0.00,weatherlink.com 1.10,2013-01-08 12:26:00,
2013-01-08 07:41:00,22.7,21.0,30.47,East,97,0.0,0.0,92,0.00,,,0.00,weatherlink.com 1.10,2013-01-08 12:41:00,
2013-01-08 07:56:00,23.0,21.0,30.48,East,97,0.0,1.0,92,0.00,,,0.00,weatherlink.com 1.10,2013-01-08 12:56:00,
2013-01-08 08:11:00,23.9,22.0,30.49,East,97,0.0,0.0,93,0.00,,,0.00,weatherlink.com 1.10,2013-01-08 13:11:00,
2013-01-08 08:26:00,25.4,24.0,30.48,NW,304,0.0,3.0,94,0.00,,,0.00,weatherlink.com 1.10,2013-01-08 13:26:00,
2013-01-08 08:41:00,26.6,25.0,30.50,SSW,205,0.0,2.0,94,0.00,,,0.00,weatherlink.com 1.10,2013-01-08 13:41:00,
2013-01-08 08:56:00,27.7,26.0,30.50,SSW,205,0.0,1.0,94,0.00,,,0.00,weatherlink.com 1.10,2013-01-08 13:56:00,
2013-01-08 09:11:00,28.7,27.0,30.49,ESE,108,1.0,2.0,94,0.00,,,0.00,weatherlink.com 1.10,2013-01-08 14:11:00,
2013-01-08 09:26:00,29.7,28.0,30.50,ESE,108,0.0,2.0,93,0.00,,,0.00,weatherlink.com 1.10,2013-01-08 14:26:00,
2013-01-08 09:41:00,30.5,29.0,30.50,ESE,108,0.0,0.0,93,0.00,,,0.00,weatherlink.com 1.10,2013-01-08 14:41:00,
2013-01-08 09:56:00,31.4,30.0,30.50,ESE,108,0.0,1.0,93,0.00,,,0.00,weatherlink.com 1.10,2013-01-08 14:56:00,
2013-01-08 10:11:00,32.6,31.0,30.51,ESE,108,0.0,2.0,93,0.00,,,0.00,weatherlink.com 1.10,2013-01-08 15:11:00,
2013-01-08 10:26:00,33.8,32.0,30.51,SE,128,0.0,2.0,93,0.00,,,0.00,weatherlink.com 1.10,2013-01-08 15:26:00,
2013-01-08 10:41:00,34.9,33.0,30.51,SE,128,0.0,2.0,92,0.00,,,0.00,weatherlink.com 1.10,2013-01-08 15:41:00,
2013-01-08 10:56:00,36.4,34.0,30.50,East,101,1.0,3.0,92,0.00,,,0.00,weatherlink.com 1.10,2013-01-08 15:56:00,
2013-01-08 11:11:00,37.5,35.0,30.49,East,86,0.0,3.0,90,0.00,,,0.00,weatherlink.com 1.10,2013-01-08 16:11:00,
2013-01-08 11:26:00,38.7,36.0,30.49,North,1,0.0,2.0,89,0.00,,,0.00,weatherlink.com 1.10,2013-01-08 16:26:00,
2013-01-08 11:42:00,39.9,36.0,30.48,South,187,1.0,2.0,86,0.00,,,0.00,weatherlink.com 1.10,2013-01-08 16:42:00,
2013-01-08 11:57:00,41.2,36.0,30.47,SSW,194,1.0,2.0,83,0.00,,,0.00,weatherlink.com 1.10,2013-01-08 16:57:00,
2013-01-08 12:12:00,41.9,36.0,30.46,SW,230,1.0,4.0,80,0.00,,,0.00,weatherlink.com 1.10,2013-01-08 17:12:00,
2013-01-08 12:27:00,42.3,36.0,30.45,SW,230,0.0,2.0,79,0.00,,,0.00,weatherlink.com 1.10,2013-01-08 17:27:00,
2013-01-08 12:42:00,43.4,37.0,30.45,South,172,1.0,4.0,78,0.00,,,0.00,weatherlink.com 1.10,2013-01-08 17:42:00,
2013-01-08 12:57:00,44.6,38.0,30.44,ESE,116,0.0,2.0,77,0.00,,,0.00,weatherlink.com 1.10,2013-01-08 17:57:00,
2013-01-08 13:12:00,45.5,38.0,30.43,ESE,103,1.0,3.0,75,0.00,,,0.00,weatherlink.com 1.10,2013-01-08 18:12:00,
2013-01-08 13:27:00,46.7,38.0,30.43,SSE,163,2.0,4.0,73,0.00,,,0.00,weatherlink.com 1.10,2013-01-08 18:27:00,
2013-01-08 13:42:00,47.5,39.0,30.42,NNW,333,2.0,4.0,71,0.00,,,0.00,weatherlink.com 1.10,2013-01-08 18:42:00,
2013-01-08 13:57:00,48.6,39.0,30.42,NNE,27,0.0,3.0,70,0.00,,,0.00,weatherlink.com 1.10,2013-01-08 18:57:00,
2013-01-08 14:12:00,49.2,39.0,30.42,WSW,244,2.0,6.0,68,0.00,,,0.00,weatherlink.com 1.10,2013-01-08 19:12:00,
2013-01-08 14:27:00,50.2,39.0,30.41,ESE,108,3.0,6.0,65,0.00,,,0.00,weatherlink.com 1.10,2013-01-08 19:27:00,
2013-01-08 14:42:00,50.8,39.0,30.41,SSE,162,4.0,7.0,64,0.00,,,0.00,weatherlink.com 1.10,2013-01-08 19:42:00,
2013-01-08 14:57:00,51.0,38.0,30.41,SSE,155,2.0,6.0,62,0.00,,,0.00,weatherlink.com 1.10,2013-01-08 19:57:00,
2013-01-08 15:12:00,51.2,39.0,30.41,SSE,149,0.0,3.0,63,0.00,,,0.00,weatherlink.com 1.10,2013-01-08 20:12:00,
2013-01-08 15:27:00,51.5,39.0,30.41,SSE,167,0.0,4.0,62,0.00,,,0.00,weatherlink.com 1.10,2013-01-08 20:27:00,
2013-01-08 15:42:00,51.6,39.0,30.41,WSW,243,0.0,2.0,63,0.00,,,0.00,weatherlink.com 1.10,2013-01-08 20:42:00,
2013-01-08 15:57:00,51.3,39.0,30.41,WSW,250,0.0,2.0,64,0.00,,,0.00,weatherlink.com 1.10,2013-01-08 20:57:00,
2013-01-08 16:12:00,51.2,39.0,30.41,WSW,250,0.0,0.0,63,0.00,,,0.00,weatherlink.com 1.10,2013-01-08 21:12:00,
2013-01-08 16:27:00,51.0,39.0,30.41,WSW,250,0.0,0.0,63,0.00,,,0.00,weatherlink.com 1.10,2013-01-08 21:27:00,
2013-01-08 16:42:00,50.0,39.0,30.42,WSW,250,0.0,2.0,65,0.00,,,0.00,weatherlink.com 1.10,2013-01-08 21:42:00,
2013-01-08 16:57:00,48.6,38.0,30.42,WSW,250,2.0,2.0,68,0.00,,,0.00,weatherlink.com 1.10,2013-01-08 21:57:00,
2013-01-08 17:12:00,47.3,39.0,30.42,WSW,250,0.0,2.0,72,0.00,,,0.00,weatherlink.com 1.10,2013-01-08 22:12:00,
2013-01-08 17:27:00,46.2,39.0,30.43,WSW,250,0.0,0.0,75,0.00,,,0.00,weatherlink.com 1.10,2013-01-08 22:27:00,
2013-01-08 17:42:00,45.7,39.0,30.43,WSW,250,0.0,0.0,77,0.00,,,0.00,weatherlink.com 1.10,2013-01-08 22:42:00,
2013-01-08 17:57:00,44.5,38.0,30.42,WSW,250,0.0,0.0,79,0.00,,,0.00,weatherlink.com 1.10,2013-01-08 22:57:00,
2013-01-08 18:12:00,43.8,38.0,30.42,WSW,250,0.0,0.0,81,0.00,,,0.00,weatherlink.com 1.10,2013-01-08 23:12:00,
2013-01-08 18:27:00,43.0,38.0,30.42,WSW,250,0.0,0.0,82,0.00,,,0.00,weatherlink.com 1.10,2013-01-08 23:27:00,
2013-01-08 18:42:00,41.9,37.0,30.42,WSW,250,0.0,0.0,84,0.00,,,0.00,weatherlink.com 1.10,2013-01-08 23:42:00,
2013-01-08 18:57:00,40.9,36.0,30.42,WSW,250,0.0,0.0,84,0.00,,,0.00,weatherlink.com 1.10,2013-01-08 23:57:00,
2013-01-08 19:12:00,39.9,36.0,30.43,WSW,250,0.0,0.0,87,0.00,,,0.00,weatherlink.com 1.10,2013-01-09 00:12:00,
2013-01-08 19:27:00,38.8,35.0,30.43,WSW,250,0.0,1.0,87,0.00,,,0.00,weatherlink.com 1.10,2013-01-09 00:27:00,
2013-01-08 19:42:00,37.7,35.0,30.43,WSW,250,0.0,0.0,88,0.00,,,0.00,weatherlink.com 1.10,2013-01-09 00:42:00,
2013-01-08 19:57:00,37.0,34.0,30.43,WSW,250,0.0,0.0,90,0.00,,,0.00,weatherlink.com 1.10,2013-01-09 00:57:00,
2013-01-08 20:12:00,36.4,34.0,30.43,WSW,250,0.0,0.0,91,0.00,,,0.00,weatherlink.com 1.10,2013-01-09 01:12:00,
2013-01-08 20:27:00,35.8,33.0,30.43,WSW,250,0.0,0.0,90,0.00,,,0.00,weatherlink.com 1.10,2013-01-09 01:27:00,
2013-01-08 20:42:00,35.0,33.0,30.43,WSW,250,0.0,0.0,91,0.00,,,0.00,weatherlink.com 1.10,2013-01-09 01:42:00,
2013-01-08 20:57:00,34.7,32.0,30.42,WSW,250,0.0,0.0,91,0.00,,,0.00,weatherlink.com 1.10,2013-01-09 01:57:00,
2013-01-08 21:12:00,33.8,32.0,30.43,WSW,250,0.0,0.0,92,0.00,,,0.00,weatherlink.com 1.10,2013-01-09 02:12:00,
2013-01-08 21:27:00,33.8,32.0,30.43,WSW,250,0.0,1.0,92,0.00,,,0.00,weatherlink.com 1.10,2013-01-09 02:27:00,
2013-01-08 21:58:00,32.7,31.0,30.43,WSW,250,0.0,0.0,92,0.00,,,0.00,weatherlink.com 1.10,2013-01-09 02:58:00,
2013-01-08 22:13:00,32.3,30.0,30.43,WSW,250,0.0,0.0,92,0.00,,,0.00,weatherlink.com 1.10,2013-01-09 03:13:00,
2013-01-08 22:28:00,32.1,30.0,30.44,WSW,250,0.0,2.0,92,0.00,,,0.00,weatherlink.com 1.10,2013-01-09 03:28:00,
2013-01-08 22:43:00,31.7,30.0,30.44,WSW,250,0.0,0.0,93,0.00,,,0.00,weatherlink.com 1.10,2013-01-09 03:43:00,
2013-01-08 22:58:00,31.5,30.0,30.45,WSW,250,0.0,1.0,93,0.00,,,0.00,weatherlink.com 1.10,2013-01-09 03:58:00,
2013-01-08 23:13:00,31.3,30.0,30.44,WSW,250,0.0,0.0,93,0.00,,,0.00,weatherlink.com 1.10,2013-01-09 04:13:00,
2013-01-08 23:28:00,31.4,30.0,30.43,WSW,250,0.0,0.0,93,0.00,,,0.00,weatherlink.com 1.10,2013-01-09 04:28:00,
2013-01-08 23:43:00,31.7,30.0,30.44,WSW,250,0.0,0.0,93,0.00,,,0.00,weatherlink.com 1.10,2013-01-09 04:43:00,
2013-01-08 23:58:00,32.7,31.0,30.44,WSW,250,0.0,2.0,94,0.00,,,0.00,weatherlink.com 1.10,2013-01-09 04:58:00,